Location: Helsinki
(60.1699°N, 24.9384°E)
Time: 10:50:00
(UTC+02:00)

AO-85 - Visible Passes

Search period start: 30 November 2022 00:00
Search period end: 10 December 2022 00:00
Orbit: 513 x 757 km, 64.8° (Epoch: 24 November)

Date Brightness Start Highest point End Pass type
(mag) Time Alt. Az. Time Alt. Az. Time Alt. Az.
30 Nov ? 16:26:46 10° S 16:30:25 23° SE 16:33:53 10° ENE visible
30 Nov ? 18:05:39 10° SW 18:10:13 79° SE 18:11:28 45° ENE visible
30 Nov ? 19:46:23 10° W 19:48:56 30° WNW 19:48:56 30° WNW visible
01 Dec ? 16:48:19 10° SSW 16:52:34 38° SE 16:55:51 14° ENE visible
01 Dec ? 18:28:09 10° WSW 18:32:39 74° NNW 18:33:19 60° NNE visible
01 Dec ? 20:09:07 10° WNW 20:10:46 21° WNW 20:10:46 21° WNW visible
02 Dec ? 17:10:20 10° SW 17:14:50 60° SE 17:17:40 20° ENE visible
02 Dec ? 18:50:48 10° W 18:55:08 56° NNW 18:55:08 56° NNW visible
02 Dec ? 20:31:49 10° WNW 20:32:35 14° WNW 20:32:35 14° WNW visible
03 Dec ? 17:32:40 10° WSW 17:37:13 90° NW 17:39:28 27° ENE visible
03 Dec ? 19:13:32 10° W 19:16:56 41° NW 19:16:56 41° NW visible
04 Dec ? 16:15:08 10° SSW 16:19:30 45° SE 16:23:35 10° ENE visible
04 Dec ? 17:55:14 10° WSW 17:59:41 65° NNW 18:01:15 36° NE visible
04 Dec ? 19:36:14 10° WNW 19:38:42 29° NW 19:38:42 29° NW visible
05 Dec ? 16:37:16 10° SW 16:41:48 72° SE 16:45:34 13° ENE visible
05 Dec ? 18:17:55 10° W 18:22:14 51° NNW 18:23:02 44° NNE visible
05 Dec ? 19:58:54 10° WNW 20:00:29 21° WNW 20:00:29 21° WNW visible
06 Dec ? 16:59:42 10° WSW 17:04:13 79° NNW 17:07:20 18° ENE visible
06 Dec ? 18:40:39 10° W 18:44:47 45° N 18:44:47 45° N visible
06 Dec ? 20:21:27 10° WNW 20:22:14 15° WNW 20:22:14 15° WNW visible
07 Dec ? 17:22:19 10° W 17:26:42 59° NNW 17:29:05 24° NE visible
07 Dec ? 19:03:20 10° WNW 19:06:33 38° NNW 19:06:33 38° NNW visible
07 Dec ? 20:43:57 10° WNW 20:44:00 10° WNW 20:44:00 10° WNW visible
08 Dec ? 16:04:15 10° SW 16:08:46 83° SE 16:12:58 10° ENE visible
08 Dec ? 17:45:02 10° W 17:49:16 48° NNW 17:50:51 31° NE visible
08 Dec ? 19:25:57 10° WNW 19:28:18 29° NW 19:28:18 29° NW visible
09 Dec ? 16:26:45 10° WSW 16:31:12 70° NNW 16:35:09 11° ENE visible
09 Dec ? 18:07:44 10° WNW 18:11:53 44° N 18:12:36 40° NNE visible
09 Dec ? 19:48:28 10° WNW 19:50:03 22° NW 19:50:03 22° NW visible
